Tracking 18951 objects as of 21-Jan-2018
HD Live streaming from Space Station
objects crossing your sky now

COSMOS 2251 DEB

Track COSMOS 2251 DEB now!
10-day predictions


NORAD ID: 37120
Int'l Code: 1993-036BGS
Perigee: 732.7 km
Apogee: 807.3 km
Inclination: 74.0 °
Period: 100.1 minutes
Semi major axis: 7141 km
RCS: 0.0125 m2 (small)
Launch date: June 16, 1993
Source: Commonwealth of Independent States (former USSR) (CIS)
Launch site: PLESETSK MISSILE AND SPACE COMPLEX (PKMTR)

Note: This is SATELLITE DEBRIS
aabbcc
Your satellite tracking list
Your tracking list is empty




NASA's NSSDC Master Catalog

Two Line Element Set (TLE):
1 37120U 93036BGS 18012.24498640 +.00001285 +00000-0 +42102-3 0  9991
2 37120 074.0195 217.3382 0052192 248.3307 111.2284 14.38675408418977
Source of the keplerian elements: AFSPC